Find Starlink 32408

NORAD ID: 62054 Int'l Des: 2024-216 Owner: SPXS Country: US Constellation: starlink operational
LEOCIRCULAR

Live Position

Loading 3D Globe...

About Starlink 32408

Description loading...

Upcoming Passes

Passes for default location (London). Set your location on the main map for personalized predictions.

Altitude History

Loading altitude history...

Two-Line Element Set

1 62054U 24216Y 26106.86337781 .00010434 00000-0 38812-3 0 9997
2 62054 43.0032 40.7497 0000905 263.5766 96.4983 15.27580544 79726
Epoch: Apr 16, 2026 • Age: 8 hours

Current Status

Altitude 486.7 km
Velocity 7.63 km/s
Sub-Earth Point 42.72°N, 141.4°W
Launch Date Nov 21, 2024
Age 1.3 years
Type internet

Technical Details

Classification Payload
Mass 730.00 kg
Dry Mass 700.00 kg
Total Mass 730.00 kg
Length 0.30 m
Diameter 4.10 m
Span 29.00 m
Shape Box + pan
Manufacturer SPXS
Bus Type Starlink V2M
Phase Status In Orbit
Owner/State SPXS/US

Most Searched